TITAN 3C TRANSTAGE DEB, 28807

Orbit data source: Space-Track

TITAN 3C TRANSTAGE DEB, 28807 is space debris in HEO originally from a launch on Tue, 21 Dec 1965 UTC launched from the Air Force Eastern Test Range (AFETR). Debris objects in space refer to the collection of defunct objects orbiting the Earth. Examples of debris include non-operational satellites, rocket bodies, and fragments generated from explosions, collisions, or faulty payload assembly.

Loading next visibility...
Identifier
28807, 1965-108BZ
Orbit
HEO
Country
Flag of USUS
Related business
Manufacturer
Unknown
Mission
Spacecraft
Bus & Motor
Unknown
Mass
Unknown
Launch date (UTC)
1965-12-21 (60 years ago)
Launch vehicle
Unknown
Launch site
Air Force Eastern Test Range (AFETR)
Object type
Payload
Rocket body
Debris
Shape & HBR
Unknown shape, 1.1 m
Radar Cross Section
Small (<0.1 m²)

Expand to show TLE details & history
Last TLE update: 2 weeks ago

TLE from 2 weeks ago
0 TITAN 3C TRANSTAGE DEB
1 28807U 65108BZ  26120.52962693  .00002799  00000-0  14606-1 0  9993
2 28807  25.4958 249.3360 6842143 178.9574 184.2057  2.70247476 40905
Epoch: 2026-04-30T12:42Z
TLE epoch observation values (Epoch: 2026-04-30T12:42:39.766Z)
Latitude
0.00009°
Longitude
-159.82338°
Altitude
30,277.162 km
Speed
1.855 km/s
True Right ascension
16h 37m 16s
True Declination
0° 00' 00"
Sunlit
Object was in daylight at epoch
Visualization orbit readout
Latitude
Unknown
Longitude
Unknown
Altitude
Unknown
Speed
Unknown
Apparent Right ascension
Unknown
Apparent Declination
Unknown
Sunlit
N/A
Visualization observer readout
Local Sidereal Time
19:49:47
Azimuth
Unknown
Elevation
Unknown
Doppler factor
Unknown
Orbital elements
Apogee altitude
30,296.584 km
Perigee altitude
498.276 km
Semi-major axis
21,775.567 km
Eccentricity
0.68421
Inclination
25.4958°
RAAN
249.336°
Arg. of periapsis
178.9574°
True anomaly
181.08156°
Mean anomaly
184.2057°
Eccentric anomaly
182.49745°
Mean motion
0.67544 °/min
Orbital period
532.98 mins
BSTAR
0.014606
Loading maneuver chart data...
Computing Atmospheric mass density...

Documentation

Showing up to 5 results
|